Kuchera_Ratio
0.0 0.0 0.0 0.0 0.0 0.0 0.0 0.0 0.0 0.0 0.0 0.0 0.0 0.0 0.0 0.0 0.0 0.0 0.0 0.0 0.0 0.0 0.0 0.0 0.0 0.0 0.0 0.0 0.0 0.0 0.0 0.0 0.0 0.0 0.0 0.0 0.0 0.0 0.0 0.0 0.0 0.0 1.7 2.4 2.8 6.2 7.1 0.0 0.0 0.0 0.0 0.0 0.0 0.0
0.0 0.0 0.0 0.0 0.0 0.0 0.0 0.0 0.0 0.0 0.0 0.0 0.0 0.0 0.0 0.0 0.0 0.0 0.0 0.0 0.0 0.0 0.0 0.0 0.0 0.0 0.0 0.0 0.0 0.0 0.0 0.0 0.0 0.0 0.0 0.0 0.0 0.0 0.0 0.0 0.0 0.9 0.0 0.0 0.0 0.0 0.0 0.0 0.0 0.0 0.0 0.0 0.0 0.0
0.0 0.0 0.0 0.0 0.0 0.0 0.0 0.0 0.0 0.0 0.0 0.0 0.0 0.0 0.0 0.0 0.0 0.0 0.0 0.0 0.0 0.0 0.0 0.0 0.0 0.0 0.0 0.0 0.0 0.0 0.0 0.0 0.0 0.0 0.0 0.0 0.0 0.0 0.0 0.0 0.0 0.0 0.0 0.0 0.0 0.0 0.0 0.0 0.0 0.0 0.0 0.0 0.0 0.0
0.0 0.0 0.0 0.0 0.0 0.0 0.0 0.0 0.0 0.0 0.0 0.0 0.0 0.0 0.0 0.0 0.0 0.0 0.0 0.0 0.0 0.0 0.0 0.0 0.0 0.0 0.0 0.0 0.0 0.0 0.0 0.0 0.0 0.0 0.0 0.0 0.0 0.0 0.0 0.0 0.0 0.0 0.0 0.0 0.0 0.0 0.0 0.0 0.0 0.0 0.0 0.0 0.0 0.0
0.0 0.0 0.0 0.0 0.0 0.0 0.0 0.0 0.0 0.0 0.0 0.0 0.0 0.0 0.0 0.0 0.0 0.0 0.0 0.0 0.0 0.0 0.0 0.0 0.0 0.0 0.0 0.0 0.0 0.0 0.0 0.0 0.0 0.0 0.0 0.0 0.0 0.0 0.5 0.5 0.0 0.0 0.0 0.0 0.0 0.0 0.0 0.0 0.0 0.0 0.0 0.0 0.0 0.0
0.0 0.0 0.0 0.0 0.0 0.0 0.0 0.0 0.0 0.0 0.0 0.0 0.0 0.0 0.0 0.0 0.0 0.0 0.0 0.0 0.0 0.0 0.0 1.1 0.0 0.0 0.0 0.0 0.0 0.0 0.0 0.0 0.0 0.0 0.0 0.0 0.0 0.0 1.8 2.1 0.0 0.0 0.0 0.0 0.0 0.0 0.0 0.0 0.0 0.0 0.0 0.0 0.0 0.0
0.0 0.0 0.0 0.0 0.0 0.0 0.0 0.0 0.0 0.0 0.0 0.0 0.0 0.0 0.0 0.0 0.0 0.0 0.0 0.0 0.0 0.0 0.0 2.4 1.7 1.8 0.0 0.0 0.0 0.0 0.0 0.0 0.0 0.0 0.1 0.0 0.0 0.0 1.4 1.0 0.0 0.0 0.0 0.0 0.0 0.0 0.0 0.0 0.0 0.0 0.0 0.0 0.0 0.0
0.0 0.0 0.0 0.0 0.0 0.0 0.0 0.0 0.0 0.0 0.0 0.0 0.0 0.0 0.0 0.0 0.0 0.0 0.0 0.0 0.0 0.0 0.0 5.0 5.0 4.7 0.2 3.1 3.7 1.1 0.7 0.0 0.4 0.0 2.0 2.8 2.4 2.7 8.6 0.0 0.0 0.0 0.0 0.0 0.0 0.0 0.0 0.0 0.0 0.0 0.0 0.0 0.0 0.0
0.0 0.0 0.0 0.0 0.0 0.0 0.0 0.0 0.0 0.0 0.0 0.0 0.0 0.0 0.0 0.0 0.0 0.0 0.0 0.0 0.0 0.0 2.6 6.3 6.7 6.5 2.4 5.9 3.4 2.7 1.3 6.1 3.1 4.7 4.0 3.8 4.9 11.1 0.5 0.0 0.0 0.0 0.0 0.0 0.0 0.0 0.0 0.0 0.0 0.0 0.0 0.0 0.0 0.0
0.0 0.0 0.0 0.0 0.0 0.0 0.0 0.0 0.0 0.0 0.0 0.0 0.0 0.0 0.0 0.0 0.0 0.0 0.0 0.0 0.9 0.0 3.5 6.5 4.4 6.9 4.1 6.1 7.5 5.7 4.8 6.5 11.0 5.0 4.7 8.9 8.2 0.0 0.0 0.0 0.0 0.0 0.0 0.0 3.5 2.7 0.2 1.7 0.0 0.0 0.0 0.0 0.0 0.0
0.0 0.0 0.0 0.0 0.0 0.0 0.0 0.0 0.0 0.0 0.0 0.0 0.0 1.7 0.0 0.0 0.0 0.0 6.4 6.9 5.5 7.8 5.5 5.2 2.3 3.7 3.7 6.5 6.3 4.7 8.6 8.1 12.6 9.6 10.4 9.8 8.0 0.0 0.0 0.0 0.0 0.0 0.0 0.0 0.0 0.0 0.1 0.7 1.4 0.9 0.1 0.0 0.0 0.0
0.0 0.0 0.0 0.0 0.0 0.0 0.0 0.0 0.0 0.0 0.0 0.0 0.0 0.0 0.0 3.0 6.6 7.3 9.2 6.5 8.5 7.4 6.8 7.2 5.8 3.5 5.7 1.8 5.0 8.5 9.3 11.1 13.1 8.8 12.5 13.7 4.2 0.0 0.0 0.0 1.2 0.1 0.4 0.7 0.1 0.2 0.2 0.0 0.4 0.4 0.6 2.8 1.7 2.6
0.0 0.0 0.0 0.0 0.0 0.0 0.0 0.0 0.0 0.0 0.0 0.0 1.3 6.2 7.0 7.0 12.3 11.9 13.8 11.7 10.1 7.3 6.9 8.2 8.6 4.7 6.4 3.8 6.8 7.6 12.3 12.6 9.6 12.9 13.2 6.7 0.0 0.0 0.0 2.0 3.1 1.4 0.6 0.2 0.9 0.5 0.3 1.0 0.0 0.0 0.2 0.1 0.2 0.9
0.0 0.0 0.0 0.0 0.0 0.0 0.0 0.0 0.0 0.0 0.0 6.2 8.6 12.9 12.4 12.3 11.3 8.8 8.8 6.6 4.0 5.3 5.8 4.0 8.0 4.8 4.9 7.9 7.2 11.7 10.3 11.0 14.6 15.3 10.7 3.5 0.0 1.5 3.2 2.9 2.8 4.0 1.4 3.2 4.0 3.5 3.0 2.8 1.9 1.8 1.6 1.4 2.5 2.6
0.0 0.0 0.0 0.0 0.0 0.0 0.0 0.0 0.0 0.0 2.3 8.1 9.3 12.6 12.7 7.2 9.8 9.9 9.2 8.8 7.9 1.0 3.8 7.7 7.8 5.1 8.7 9.9 8.8 12.4 14.5 14.8 13.5 10.2 4.2 0.0 0.0 1.9 4.6 5.2 2.8 2.9 3.3 4.7 4.0 3.3 3.5 4.6 4.5 3.7 2.0 2.7 3.6 4.7
0.0 0.0 0.0 0.0 0.0 0.0 0.0 0.0 0.0 0.0 5.6 7.6 8.9 12.2 10.7 11.9 10.9 11.2 11.8 11.7 6.2 2.9 4.5 4.6 10.2 11.2 11.0 9.5 13.7 13.5 14.0 14.3 5.1 3.7 0.4 1.8 2.7 4.8 5.3 4.5 3.1 2.1 1.5 2.2 3.6 3.9 4.4 5.3 5.7 4.4 5.3 5.5 5.6 5.8
0.0 1.0 0.0 0.0 0.0 0.0 0.0 0.0 2.3 7.2 8.2 9.2 12.0 5.3 8.6 11.9 9.9 10.1 8.9 7.9 3.3 4.7 7.3 8.9 12.9 12.6 11.6 13.2 14.0 12.2 12.5 5.9 2.5 2.6 2.6 3.9 4.6 5.6 4.3 4.0 3.6 3.4 3.1 3.1 4.3 4.7 5.9 6.3 6.9 8.1 9.0 5.4 7.5 8.2
1.2 0.0 0.0 0.0 0.0 0.0 1.4 3.7 7.3 8.3 11.1 9.0 13.2 7.6 7.7 9.3 7.7 8.3 8.9 6.5 4.3 8.0 9.5 11.0 10.5 13.5 13.4 14.3 12.7 8.7 4.9 5.3 6.7 5.7 4.9 5.6 4.7 4.7 3.6 3.1 4.0 4.0 4.4 5.6 6.8 7.0 7.2 7.9 8.8 8.9 9.1 8.6 9.6 9.2
0.0 0.0 0.0 0.0 0.0 6.0 8.3 8.4 7.5 12.1 12.3 13.1 10.5 9.6 8.1 9.7 8.5 7.0 5.1 3.7 5.7 5.8 8.1 12.0 12.9 13.0 12.6 11.2 10.6 8.4 7.3 8.6 6.8 8.2 6.7 5.1 4.1 4.4 5.0 5.2 5.9 6.4 6.9 7.4 7.8 7.2 6.6 7.7 7.6 7.6 7.2 7.9 9.1 7.3
0.0 0.0 0.0 0.0 0.0 8.1 11.6 11.5 7.9 12.4 14.6 13.8 11.0 12.2 11.4 10.8 9.3 8.1 7.1 6.1 7.8 8.2 10.4 12.0 11.9 11.5 10.6 8.6 8.3 7.3 6.5 6.0 5.9 7.8 7.7 5.7 5.4 7.2 6.7 7.0 7.4 7.7 6.9 6.9 7.6 8.1 8.1 8.2 6.7 7.3 7.5 8.5 9.6 8.7
1.5 4.5 3.3 3.4 7.4 8.4 10.8 12.7 12.6 12.6 14.2 14.7 13.2 11.8 12.7 10.6 10.0 10.0 10.8 8.4 10.0 10.2 11.3 10.8 10.0 9.3 7.7 7.3 6.4 5.4 5.2 2.9 4.2 3.3 3.0 5.1 5.3 6.5 6.9 7.5 7.2 6.5 7.3 7.6 8.7 8.0 6.5 8.0 6.4 6.5 8.3 8.2 7.4 7.7
6.1 3.8 8.1 7.4 12.4 12.9 13.8 12.7 13.3 13.0 13.5 15.3 14.1 14.0 13.7 14.2 14.3 14.4 14.3 12.6 12.1 11.3 10.3 9.8 8.1 7.9 8.2 8.5 7.7 6.2 4.5 4.7 4.4 4.8 5.2 5.3 6.6 7.6 5.9 5.7 7.2 7.9 8.9 9.8 9.9 9.7 8.4 7.0 7.1 8.2 9.3 8.5 7.3 7.9
5.3 8.1 11.4 11.1 13.8 14.0 15.9 13.2 16.0 15.6 16.5 17.4 15.3 16.6 17.1 16.6 15.9 15.1 14.4 14.1 13.3 11.4 9.0 8.2 8.9 9.0 8.6 7.7 8.2 8.0 8.0 7.8 7.7 7.3 7.2 7.5 7.2 6.9 6.5 6.4 8.6 10.3 11.3 10.3 10.0 10.7 11.0 7.8 7.5 7.7 8.1 9.0 10.0 10.9
8.9 14.2 15.9 16.0 15.2 17.9 15.4 17.3 15.7 16.3 16.2 17.1 18.1 19.5 18.8 17.4 16.1 14.6 15.6 14.6 13.3 12.2 11.5 12.3 10.9 10.4 10.4 10.8 10.7 9.2 8.1 7.9 6.9 6.4 7.3 8.2 8.1 6.9 7.7 9.0 9.0 10.0 10.7 9.8 10.9 11.5 11.4 11.2 9.3 10.1 11.1 12.7 13.2 13.9
16.1 17.5 16.5 18.0 16.1 17.1 18.1 18.5 18.6 18.7 19.7 18.8 19.6 19.9 19.2 18.7 17.9 18.0 16.8 15.2 14.7 13.1 12.5 12.6 12.4 12.1 10.9 10.1 9.0 8.2 8.3 8.6 8.9 9.7 10.0 9.1 10.6 11.2 11.6 12.4 12.1 11.6 10.6 13.0 12.9 12.7 12.6 12.8 12.9 13.3 13.5 14.0 13.4 13.4
19.7 18.4 18.4 18.2 18.3 17.9 18.2 19.0 18.5 19.3 19.2 20.2 20.2 19.7 19.3 17.4 17.3 17.9 16.5 14.8 13.6 13.2 13.1 12.4 12.0 12.2 11.9 11.9 12.5 12.5 12.0 12.0 12.6 13.0 11.6 12.3 12.4 13.1 13.9 14.3 14.1 12.5 12.0 12.3 12.8 13.5 13.6 13.6 14.1 15.0 14.7 14.4 12.6 13.1
19.7 19.5 18.1 15.0 16.7 17.4 18.3 18.2 17.4 18.1 18.7 19.2 19.3 18.8 18.2 20.5 19.9 17.5 14.3 13.5 12.6 12.8 12.8 12.7 12.6 12.5 12.6 12.4 12.5 12.8 13.1 13.4 13.8 13.3 12.7 13.0 13.3 12.9 12.9 14.4 15.1 12.9 12.6 13.3 13.9 14.2 13.9 13.5 13.5 14.0 14.5 14.0 14.1 14.7
18.9 18.5 18.9 17.9 17.6 17.1 17.5 17.9 18.0 18.9 18.6 18.4 18.3 18.0 18.0 18.1 18.6 15.2 14.1 13.8 13.8 13.4 13.3 12.9 12.7 13.0 13.3 13.6 14.1 14.0 13.6 14.2 13.6 12.4 12.2 12.7 13.1 13.2 14.0 14.7 14.4 12.7 12.2 13.1 13.4 13.9 14.0 14.1 14.2 14.6 14.6 14.9 14.8 13.7
18.7 18.1 17.6 17.8 17.8 18.6 19.2 19.2 19.1 19.6 19.1 18.4 17.8 18.3 18.9 17.4 16.8 16.1 15.0 14.3 13.8 13.0 12.9 13.2 14.1 14.1 13.9 13.8 14.3 15.0 15.4 15.9 16.3 16.2 16.4 16.7 16.1 14.8 14.9 15.3 15.5 15.5 15.6 16.0 14.0 12.1 13.1 14.0 13.8 13.7 13.6 13.6 13.5 13.7
18.2 17.2 17.2 18.2 19.0 19.7 20.1 18.9 19.0 18.6 18.1 17.8 17.3 17.4 17.0 16.9 17.1 15.6 14.8 14.2 13.1 13.7 15.0 15.3 15.6 15.8 16.0 15.8 15.5 15.2 15.5 15.4 16.3 17.1 16.9 17.4 17.0 15.6 16.4 16.0 15.8 15.7 16.1 16.6 17.2 16.9 14.5 15.6 16.0 16.8 16.7 16.6 16.0 15.8
17.6 17.2 17.7 18.6 19.5 19.6 19.0 18.7 18.2 17.7 17.3 17.1 16.3 17.1 17.9 17.9 15.9 15.3 15.2 15.3 15.1 15.2 15.5 15.4 15.8 16.4 17.0 17.2 17.7 17.7 17.6 16.5 16.6 17.3 16.9 15.8 15.9 16.4 16.3 16.0 15.6 15.5 16.8 17.3 17.1 17.4 17.8 18.0 18.0 18.2 17.9 18.3 18.0 16.8
17.4 17.4 17.7 18.2 19.3 19.1 18.4 17.4 17.2 17.0 17.1 16.9 17.5 16.8 16.7 16.5 17.2 15.4 14.6 15.0 15.5 16.1 16.1 17.0 17.3 17.4 16.7 17.6 17.4 17.8 15.2 17.1 17.9 18.0 18.2 17.7 17.3 16.6 16.6 16.4 16.3 16.4 16.7 17.3 16.9 17.3 17.4 17.9 18.1 18.4 18.1 18.5 18.9 18.8
18.2 17.7 17.8 18.2 18.4 18.4 18.2 17.5 17.6 17.3 17.0 17.6 17.3 16.7 16.7 16.6 17.4 16.3 15.7 15.8 16.8 17.3 17.7 17.7 17.5 17.1 17.3 17.5 17.3 17.6 16.8 17.5 18.3 13.8 13.7 13.0 12.2 12.3 12.9 13.8 15.1 15.4 16.0 16.4 16.3 16.6 17.6 18.0 18.5 18.7 18.9 19.2 18.9 18.5